Content
SEND FEEDBACK

Daily
Averages
Monthly
Summary
United States of America

SHELBURNE FALLS, MASSACHUSETTS


Home > North America > United States > Massachusetts
Elevation: 400 feet     Latitude: 42 36N     Longitude: 072 44W

WEATHER
 
SELECT A DAY
Number of Records: 216,858;   Date Range: 7/1/96 - 11/26/14
 
SHARE

PRINT THIS DATA

[ ← Previous Day ]
WEATHER ALMANAC - FEBRUARY 21, 2014
[ Next Day → ]
[ °C ]   °F
Weather ElementAverageHighLow
Temperature34.1 °F37.4 °F (3:49 pm)26.1 °F (11:52 pm)
Dewpoint32.8 °F36 °F (3:26 pm)24.1 °F (11:52 pm)
Humidity95.2 %100 % (1:52 am)89 % (11:17 am)
Barometer29.89 in30.10 in (12:52 am)29.66 in (5:06 pm)
Wind Speed2.6 mph11.5 mph (5:42 pm)
Weather ElementAverage
Visibility3.1 mi
Wind DirectionESE (96 °)

Weather ElementTotal
Precipitation0.79 in
Heating Degree Days33.3 (Base 65)
Averaged from 82 records on February 21, 2014
WEATHER CONDITIONS BREAKOUT
WIND DIRECTION BREAKOUT
WEATHER BY HOUR - FEBRUARY 21, 2014
[ °C ]   °F
Local TimeTemperatureDewpointHumidityBarometerVisibilityWind DirectionWind SpeedGust SpeedPrecipitationEventsConditions
12:38 AM32.0 °F30.9 °F96 %30.08 in2.0 miCalmOvercast
12:52 AM32.0 °F30.9 °F96 %30.10 in1.5 miCalmOvercast
1:20 AM32.0 °F30.9 °F96 %30.09 in2.5 miNW (310°)3.5 mphOvercast
1:34 AM32.0 °F30.9 °F96 %30.08 in1.2 miCalmOvercast
1:44 AM32.0 °F30.9 °F96 %30.07 in1.0 miCalmOvercast
1:52 AM32.0 °F32.0 °F100 %30.09 in1.2 miCalmOvercast
2:03 AM32.0 °F32.0 °F100 %30.07 in1.8 miCalmOvercast
2:11 AM32.0 °F30.9 °F96 %30.07 in1.0 miCalmOvercast
2:16 AM32.0 °F30.9 °F96 %30.07 in1.2 miCalmOvercast
2:27 AM32.0 °F30.9 °F96 %30.07 in2.0 miNW (310°)3.5 mphOvercast
2:42 AM32.0 °F30.9 °F96 %30.07 in1.2 miNW (320°)4.6 mphOvercast
2:52 AM32.0 °F30.9 °F96 %30.08 in1.2 miNW (320°)3.5 mphOvercast
2:54 AM32.0 °F30.9 °F96 %30.06 in1.5 miCalmOvercast
3:02 AM32.0 °F32.0 °F100 %30.05 in1.0 miCalm0.00 inOvercast
3:17 AM32.0 °F32.0 °F100 %30.04 in1.5 miCalm0.00 inOvercast
3:23 AM32.0 °F32.0 °F100 %30.04 in3.0 miSouth (170°)3.5 mph0.00 inOvercast
3:45 AM33.1 °F32.0 °F96 %30.02 in6.0 miCalm0.00 inRainLight Rain
3:52 AM33.1 °F30.9 °F92 %30.04 in10.0 miVariable3.5 mph0.00 inOvercast
4:52 AM33.1 °F30.9 °F92 %30.07 in5.0 miNE (40°)3.5 mph0.02 inRainLight Rain
5:44 AM34.0 °F32.0 °F92 %30.05 in10.0 miCalm0.01 inOvercast
5:52 AM33.1 °F30.9 °F92 %30.06 in10.0 miCalm0.01 inOvercast
6:09 AM33.1 °F32.0 °F96 %30.06 in10.0 miSE (140°)3.5 mphOvercast
6:50 AM33.8 °F32.0 °F93 %30.05 in2.5 miCalmOvercast
6:51 AM33.1 °F32.0 °F96 %30.07 in2.5 miCalmOvercast
7:19 AM33.1 °F32.0 °F96 %30.04 in2.5 miCalmOvercast
7:31 AM33.1 °F32.0 °F96 %30.03 in4.0 miCalmOvercast
7:52 AM34.0 °F32.0 °F92 %30.05 in8.0 miCalmOvercast
8:52 AM34.0 °F32.0 °F92 %30.02 in2.5 miCalmOvercast
9:00 AM34.0 °F32.0 °F92 %30.00 in3.0 miNNW (330°)3.5 mphOvercast
9:34 AM35.1 °F34.0 °F96 %30.00 in2.0 miCalmOvercast
9:41 AM35.1 °F34.0 °F96 %30.00 in1.5 miCalmOvercast
9:52 AM35.1 °F34.0 °F96 %30.02 in1.5 miCalmOvercast
10:13 AM36.0 °F34.0 °F93 %29.99 in1.2 miVariable3.5 mph0.01 inOvercast
10:30 AM35.1 °F34.0 °F96 %29.97 in1.8 miNE (40°)3.5 mph0.01 inOvercast
10:39 AM35.1 °F34.0 °F96 %29.96 in2.0 miCalm0.01 inOvercast
10:52 AM35.1 °F34.0 °F96 %29.99 in3.0 miVariable3.5 mph0.01 inOvercast
11:17 AM36.0 °F33.1 °F89 %29.95 in3.0 miEast (80°)4.6 mph0.00 inRainLight Rain
11:24 AM36.0 °F34.0 °F93 %29.95 in2.5 miVariable3.5 mph0.00 inRainLight Rain
11:31 AM36.0 °F34.0 °F93 %29.94 in3.0 miCalm0.01 inRainLight Rain
11:52 AM36.0 °F33.1 °F89 %29.94 in10.0 miENE (70°)4.6 mph0.01 inOvercast
12:22 PM36.0 °F34.0 °F93 %29.90 in9.0 miENE (60°)4.6 mph0.00 inRainLight Rain
12:52 PM36.0 °F34.0 °F93 %29.90 in3.0 miNNE (20°)3.5 mph0.00 inRainLight Rain
1:52 PM37.0 °F35.1 °F93 %29.84 in5.0 miENE (70°)5.8 mph0.01 inOvercast
2:52 PM37.0 °F35.1 °F93 %29.80 in6.0 miCalmOvercast
3:17 PM37.0 °F35.1 °F93 %29.76 in2.5 miEast (80°)3.5 mph0.00 inRainLight Rain
3:26 PM37.0 °F36.0 °F96 %29.76 in4.0 miCalm0.00 inOvercast
3:41 PM37.0 °F35.1 °F93 %29.74 in1.8 miENE (60°)3.5 mph0.01 inOvercast
3:49 PM37.4 °F35.6 °F93 %29.72 in1.5 miENE (60°)4.6 mph0.01 inOvercast
3:52 PM37.0 °F35.1 °F93 %29.75 in1.5 miNE (40°)3.5 mph0.01 inOvercast
4:23 PM36.0 °F36.0 °F100 %29.71 in1.0 miCalm0.00 inOvercast
4:33 PM36.0 °F35.1 °F97 %29.71 in0.8 miWNW (290°)4.6 mph0.01 inRainLight Rain
4:52 PM35.1 °F35.1 °F100 %29.71 in0.5 miCalm0.05 inFog-Rain-ThunderstormRain
5:02 PM35.1 °F35.1 °F100 %29.69 in1.2 miSE (140°)3.5 mph0.03 inRain-ThunderstormRain
5:06 PM36.0 °F35.1 °F97 %29.66 in1.5 miENE (70°)4.6 mph0.04 inRain-ThunderstormRain
5:14 PM36.0 °F35.1 °F97 %29.68 in3.0 miCalm0.05 inRain-ThunderstormRain
5:23 PM36.0 °F35.1 °F97 %29.69 in3.0 miNW (310°)3.5 mph0.06 inRainLight Rain
5:31 PM36.0 °F35.1 °F97 %29.67 in1.8 miCalm0.07 inRainLight Rain
5:34 PM35.1 °F35.1 °F100 %29.68 in1.0 miNW (310°)6.9 mph0.07 inRainLight Rain
5:42 PM36.0 °F35.1 °F97 %29.69 in1.5 miWNW (290°)11.5 mph0.07 inRainLight Rain
5:45 PM37.0 °F35.1 °F93 %29.71 in4.0 miWNW (290°)11.5 mph0.07 inRainLight Rain
5:52 PM37.0 °F36.0 °F96 %29.73 in10.0 miNW (310°)10.4 mph0.07 inRainLight Rain
6:08 PM37.0 °F36.0 °F96 %29.73 in2.5 miWest (280°)8.1 mph0.01 inOvercast
6:15 PM37.0 °F36.0 °F96 %29.73 in2.5 miWNW (300°)8.1 mph0.01 inOvercast
6:20 PM37.0 °F36.0 °F96 %29.74 in3.0 miWNW (300°)6.9 mph0.01 inRainLight Rain
6:31 PM37.0 °F35.1 °F93 %29.75 in6.0 miNW (310°)8.1 mph0.01 inRainLight Rain
6:33 PM37.0 °F35.1 °F93 %29.75 in7.0 miNW (310°)8.1 mph0.01 inRainLight Rain
6:52 PM36.0 °F35.1 °F97 %29.75 in10.0 miNNW (330°)5.8 mph0.01 inOvercast
7:52 PM36.0 °F35.1 °F97 %29.74 in10.0 miWest (260°)4.6 mph0.00 inOvercast
8:21 PM34.0 °F33.1 °F96 %29.74 in1.8 miCalmMostly Cloudy
8:24 PM34.0 °F33.1 °F96 %29.74 in1.0 miCalmScattered Clouds
8:33 PM34.0 °F32.0 °F92 %29.75 in0.5 miCalmFogFog
8:43 PM34.0 °F32.0 °F92 %29.76 in0.2 miCalmFogFog
8:52 PM33.1 °F30.9 °F92 %29.79 in0.2 miCalmFogFog
9:06 PM33.1 °F30.9 °F92 %29.77 in1.2 miNNW (340°)4.6 mphClear
9:08 PM33.1 °F30.9 °F92 %29.77 in3.0 miNNW (330°)4.6 mphClear
9:52 PM30.0 °F28.9 °F96 %29.81 in2.5 miSouth (170°)3.5 mphClear
9:57 PM28.9 °F28.0 °F96 %29.79 in1.2 miSouth (190°)3.5 mphClear
10:08 PM28.9 °F28.9 °F100 %29.79 in1.5 miCalmPartly Cloudy
10:13 PM28.9 °F28.9 °F100 %29.79 in1.0 miSW (220°)3.5 mphMist
10:22 PM28.9 °F28.9 °F100 %29.80 in0.5 miCalmFogLight Freezing Fog
10:52 PM28.9 °F26.1 °F89 %29.83 in0.2 miCalmFogLight Freezing Fog
11:52 PM26.1 °F24.1 °F92 %29.86 in0.2 miCalmFogLight Freezing Fog
Hourly data recorded from KORE, located miles away from Shelburne Falls, Massachusetts







STORIES FROM OUR PARTNERS